Regional Weather Roundup
Issued by NWS

Home | Current Version | Previous Version | Text Only | Print | Product List | Glossary On
Versions: 1 2 3 4 5 6 7 8 9 10 11 12 13 14 15 16 17 18 19 20 21 22 23 24 25 26 27 28 29 30 31 32 33 34 35 36 37 38 39 40 41 42 43 44 45 46 47 48 49 50
000
ASUS43 KLMK 262010
RWRKY
KENTUCKY REGIONAL WEATHER ROUNDUP
NATIONAL WEATHER SERVICE LOUISVILLE KY
400 PM EDT SUN MAR 26 2017

NOTE "FAIR" INDICATES FEW OR NO CLOUDS BELOW 12,000 FEET
WITH NO SIGNIFICANT WEATHER AND/OR OBSTRUCTIONS TO VISIBILITY.

KYZ001>023-026-027-061>063-070>075-262100-
WESTERN AND SOUTH CENTRAL KENTUCKY

CITY           SKY/WX    TMP DP  RH WIND       PRES   REMARKS
PADUCAH        CLOUDY    62  49  62 SW14      29.94S
HENDERSON      PTSUNNY   64  52  63 W17G25    29.90S
OWENSBORO      PTSUNNY   65  59  81 SW14G21   29.91F
HOPKINSVILLE   MOSUNNY   70  54  56 SW17G23   29.92F
BOWLING GREEN  PTSUNNY   72  56  57 S12G17    29.94F
GLASGOW        RAIN      61  61 100 W7        29.96R
$$

KYZ024-025-028>034-038-045-046-053-262100-
NORTH CENTRAL KENTUCKY

CITY           SKY/WX    TMP DP  RH WIND       PRES   REMARKS
LOUISVILLE/SDF CLOUDY    71  50  47 SW14G22   29.89F
LOUISVILLE/LOU CLOUDY    70  52  52 S18G26    29.90F
FORT KNOX      PTSUNNY   68  54  60 SW17G25   29.89F
$$

KYZ035>037-039>044-047>052-055>060-089>105-262100-
NORTHEAST KENTUCKY

CITY           SKY/WX    TMP DP  RH WIND       PRES   REMARKS
LEXINGTON      CLOUDY    68  53  58 SW16G24   29.94F
COVINGTON      PTSUNNY   66  55  67 S14G22    29.89F
FRANKFORT      PTSUNNY   70  51  51 SW13      29.91F
$$

KYZ054-064>069-076>088-106>120-262100-
SOUTHEAST KENTUCKY

CITY           SKY/WX    TMP DP  RH WIND       PRES   REMARKS
JACKSON        HVY RAIN  58  57  97 VRB3      30.01R VSB 1/2
LONDON         LGT RAIN  60  58  92 SW7       30.00F FOG
SOMERSET       CLOUDY    63  55  77 S13       30.00F
MIDDLESBORO    CLOUDY    67  59  76 NE3       30.02F
MONTICELLO     CLOUDY    66  59  78 SW18G26   30.00F
$$




USA.gov is the U.S. government's official web portal to all federal, state and local government web resources and services.